Temp
85 88 89 89 92 92 93 94 92 91 90 88 88 88 87 86 83 83 73 71 72 76
86 86 89 89 90 92 91 94 91 90 88 88 88 85 87 84 84 82 79 73 73 72
88 87 88 89 87 89 91 90 89 88 87 87 85 87 85 84 84 81 78 78 75 75
91 90 88 89 88 87 90 88 87 86 87 86 86 86 84 83 84 79 79 79 77 77
91 90 91 89 90 90 88 89 87 87 86 86 85 85 83 82 82 77 76 78 79 80
92 91 90 91 91 91 89 88 90 87 85 85 84 83 83 82 80 78 78 81 79 81
93 94 93 92 91 92 89 88 88 88 87 87 85 83 81 81 80 79 80 81 81 81
93 94 93 90 90 90 90 89 89 88 86 85 86 87 81 81 82 80 81 83 83 83
90 90 90 89 87 86 88 88 88 88 86 83 89 75 74 81 84 81 80 80 83 84
88 87 87 88 86 85 86 88 87 87 88 86 86 70 71 73 88 83 82 83 84 83
88 87 87 87 86 86 87 87 86 86 87 86 87 68 68 70 84 86 84 84 84 83
88 87 87 86 86 87 87 86 87 88 86 85 87 66 65 71 83 84 84 85 86 87
89 88 87 87 86 88 88 87 90 88 87 80 86 65 64 70 87 86 86 86 85 72
89 88 88 87 87 86 86 88 86 86 86 86 84 83 63 62 84 88 85 80 82 85
MSLP
1012.49 1012.72 1012.94 1013.08 1013.07 1013.16 1013.28 1013.36 1013.86 1014.29 1014.70 1014.91 1015.23 1015.42 1015.71 1016.25 1016.67 1017.09 1017.63 1017.94 1018.62 1018.87
1011.60 1012.03 1011.89 1012.33 1012.72 1012.96 1013.04 1013.01 1013.50 1014.02 1014.41 1014.54 1014.80 1015.22 1015.62 1015.88 1016.31 1016.85 1017.27 1017.40 1017.71 1018.24
1010.58 1011.19 1011.57 1011.90 1012.22 1012.32 1012.53 1012.97 1013.20 1013.71 1014.06 1014.24 1014.50 1014.82 1015.20 1015.48 1015.78 1016.08 1016.76 1017.00 1017.16 1017.36
1009.46 1010.16 1010.89 1011.10 1011.48 1011.92 1012.24 1012.49 1012.93 1013.34 1013.66 1013.76 1014.06 1014.34 1014.72 1015.01 1015.29 1015.70 1016.03 1016.25 1016.37 1016.52
1008.76 1009.35 1009.73 1010.24 1010.58 1011.08 1011.47 1011.82 1012.30 1012.79 1013.16 1013.45 1013.70 1014.17 1014.41 1014.59 1014.97 1015.59 1015.79 1015.81 1015.81 1015.81
1007.92 1008.49 1008.84 1009.24 1009.76 1010.23 1010.86 1011.30 1011.63 1012.22 1012.59 1012.91 1013.24 1013.74 1013.91 1014.19 1014.56 1014.98 1015.14 1015.12 1015.33 1015.26
1006.99 1007.45 1008.00 1008.63 1009.08 1009.42 1010.09 1010.61 1010.89 1011.18 1011.58 1011.97 1012.39 1012.91 1013.41 1013.76 1014.08 1014.31 1014.44 1014.56 1014.74 1014.97
1006.18 1006.66 1007.36 1008.07 1008.67 1009.13 1009.54 1009.88 1010.22 1010.57 1011.08 1011.64 1011.99 1012.29 1013.02 1013.38 1013.49 1013.76 1013.92 1013.91 1014.17 1014.39
1006.00 1006.39 1006.98 1007.68 1008.29 1008.76 1009.34 1009.70 1009.93 1010.19 1010.71 1011.19 1011.32 1011.58 1012.32 1012.74 1012.98 1013.47 1013.63 1013.65 1013.65 1013.91
1005.74 1006.06 1006.56 1007.27 1007.99 1008.34 1008.76 1009.20 1009.59 1009.85 1010.14 1010.56 1010.99 1011.52 1012.18 1012.66 1012.24 1012.73 1013.01 1013.07 1013.07 1013.28
1005.56 1005.55 1006.06 1006.53 1007.26 1007.84 1008.29 1008.84 1009.25 1009.56 1009.91 1010.31 1010.69 1011.42 1012.05 1012.58 1012.45 1012.08 1012.22 1012.37 1012.54 1012.86
1005.22 1005.02 1005.49 1006.07 1006.59 1007.24 1007.76 1008.41 1008.81 1009.11 1009.50 1009.90 1010.25 1011.11 1011.75 1012.31 1012.06 1011.77 1011.81 1012.03 1012.06 1012.10
1004.56 1005.25 1004.48 1005.42 1006.05 1006.74 1007.46 1007.85 1008.19 1008.68 1009.15 1009.61 1009.92 1010.73 1011.36 1011.82 1011.17 1010.83 1011.03 1011.06 1011.49 1011.88
1004.22 1005.00 1004.43 1004.78 1005.47 1006.17 1006.97 1007.30 1008.06 1008.46 1008.73 1009.09 1009.70 1009.97 1010.79 1011.32 1011.04 1010.35 1010.22 1010.46 1010.97 1011.12
Wind_Speed
18 13 13 13 11 10 10 10 10 11 12 13 12 11 11 9 8 7 5 5 4 8
16 17 14 14 13 11 10 10 10 11 12 12 12 11 10 6 9 8 8 8 8 7
17 17 16 13 15 13 12 13 10 12 12 12 11 10 10 8 10 11 8 8 9 9
15 16 15 15 15 15 15 13 13 13 12 12 11 11 10 9 9 10 10 10 9 11
15 14 15 15 16 14 15 13 13 13 12 10 9 9 11 10 8 9 10 11 11 12
15 16 15 15 14 14 13 12 12 12 12 12 10 11 11 10 10 10 10 9 9 11
16 16 14 13 13 13 13 13 13 12 12 12 11 12 12 11 11 10 9 9 9 9
14 13 13 12 11 11 12 12 12 12 10 11 11 10 12 11 11 10 10 10 10 10
13 12 12 12 12 11 11 12 12 11 12 12 9 9 11 9 9 9 9 8 9 9
14 15 14 13 12 12 12 12 11 11 10 10 11 13 12 12 9 9 9 10 9 8
14 16 15 15 15 13 12 11 10 10 10 9 8 13 12 11 12 9 9 10 9 9
15 16 17 16 15 13 12 11 10 9 10 10 8 13 12 12 11 11 10 10 11 11
15 16 17 15 14 12 11 10 9 9 9 9 9 13 13 13 10 10 9 11 12 12
14 14 14 14 13 12 11 9 9 8 8 9 10 9 14 15 11 10 7 6 6 9
Wind_Direction
213 218 219 217 231 225 231 225 228 226 233 231 235 233 243 248 252 244 144 153 285 278
210 219 220 226 216 229 230 232 226 226 231 234 235 239 238 240 239 220 224 204 216 236
209 213 219 218 224 224 227 226 239 220 229 233 228 223 232 221 233 232 220 227 229 244
207 209 212 217 219 222 225 225 223 227 232 233 225 217 228 240 242 236 240 243 239 243
204 207 207 214 215 217 221 219 218 220 222 231 220 228 236 237 232 222 236 240 237 230
203 205 213 210 215 210 216 218 215 209 213 220 210 217 227 224 221 218 223 233 235 245
204 205 208 208 212 207 205 211 214 207 209 212 212 204 209 209 209 213 218 224 221 224
198 199 195 194 198 205 203 203 209 202 199 206 212 206 199 206 210 205 216 216 218 220
188 180 185 183 191 193 205 209 201 202 199 195 218 162 161 203 209 214 224 228 227 239
184 178 177 180 189 189 195 199 197 203 203 206 216 149 168 198 215 196 219 226 227 227
197 180 176 176 184 188 190 196 197 200 204 214 214 160 172 187 227 217 219 225 215 225
204 184 174 179 179 183 185 194 200 200 202 210 219 166 173 183 212 231 231 230 234 234
202 203 170 172 173 177 186 191 200 202 204 203 222 168 179 196 231 225 228 221 226 209
194 202 175 164 167 170 183 180 199 196 201 212 207 197 183 197 231 248 242 265 240 243